period_start,C,m1,H,J0,J1,J2,J3,J4,J5,JA,JB,JC,JD,JJ,JK,JN,#
2015-08-31 00:03:33,0.01,0.00,0.00,23.90,28.47,31.38,14.51,49.16,1015.15,2034.08,3444.96,3256.96,3561.99,600.03,593.36,1.81,0000 0000 0000 0000 000000
2015-08-31 00:08:35,0.00,0.00,0.00,23.89,28.47,31.36,14.48,49.21,1015.16,2034.08,3444.93,3256.97,3561.99,599.76,593.16,1.86,0000 0000 0000 0000 000000
2015-08-31 00:13:36,-0.00,0.00,0.00,23.91,28.47,31.38,14.53,49.18,1015.15,2034.10,3444.96,3256.96,3561.99,600.22,593.55,1.91,0000 0000 0000 0000 000000
2015-08-31 00:18:37,-0.00,0.00,0.00,23.92,28.46,31.34,14.49,49.31,1015.15,2034.11,3444.99,3256.97,3561.99,600.19,593.26,1.97,0000 0000 0000 0000 000000
2015-08-31 00:23:38,0.01,0.00,0.00,23.90,28.46,31.31,14.46,49.37,1015.15,2034.14,3444.97,3256.99,3561.99,599.92,593.32,2.02,0000 0000 0000 0000 000000
2015-08-31 00:28:40,0.01,0.00,0.00,23.90,28.45,31.32,14.53,49.41,1015.15,2034.19,3444.98,3256.99,3561.98,600.27,593.53,2.07,0000 0000 0000 0000 000000
2015-08-31 00:33:41,-0.00,0.00,0.00,23.90,28.45,31.35,14.44,49.33,1015.15,2034.24,3444.95,3256.98,3561.98,599.96,593.35,2.12,0000 0000 0000 0000 000000
2015-08-31 00:38:42,-0.01,0.00,0.00,23.89,28.45,31.32,14.49,49.25,1015.15,2034.13,3444.93,3256.98,3561.98,599.96,593.35,2.17,0000 0000 0000 0000 000000
2015-08-31 00:43:43,0.02,0.00,0.00,23.87,28.45,31.31,14.40,49.35,1015.15,2034.21,3444.88,3256.98,3561.97,599.65,593.16,2.22,0000 0000 0000 0000 000000
2015-08-31 00:48:44,0.00,0.00,0.00,23.86,28.45,31.31,14.47,49.27,1015.15,2034.29,3444.89,3256.99,3561.95,600.03,593.52,2.27,0000 0000 0000 0000 000000
2015-08-31 00:53:45,0.00,0.00,0.00,23.87,28.45,31.31,14.35,49.33,1015.15,2034.44,3444.85,3256.98,3561.98,600.14,593.42,2.32,0000 0000 0000 0000 000000
2015-08-31 00:58:47,0.04,0.00,0.00,23.88,28.45,31.29,14.48,49.36,1015.16,2034.58,3444.80,3256.98,3561.98,599.90,593.32,2.37,0000 0000 0000 0000 000000
2015-08-31 01:03:48,-0.02,0.00,0.00,23.87,28.44,31.29,14.50,49.34,1015.17,2034.56,3444.57,3256.96,3561.88,600.03,593.46,2.42,0000 0000 0000 0000 000000
2015-08-31 01:08:49,0.03,0.00,0.00,23.87,28.43,31.27,14.57,49.70,1015.28,2034.61,3444.21,3256.93,3561.81,599.85,593.37,2.47,0000 0000 0000 0000 000000
2015-08-31 01:13:50,0.01,0.01,0.00,23.84,28.42,31.27,14.44,49.56,1015.56,2034.86,3444.34,3256.98,3561.94,599.89,593.75,2.52,0000 0000 0000 0000 000000
2015-08-31 01:18:52,0.00,0.01,0.00,23.85,28.42,31.30,14.56,49.56,1015.64,2034.90,3444.30,3256.98,3561.94,600.13,593.97,2.57,0000 0000 0000 0000 000000
2015-08-31 01:23:53,-0.00,0.01,0.00,23.85,28.42,31.32,14.62,49.51,1015.63,2034.94,3444.24,3256.98,3561.94,600.28,593.96,2.62,0000 0000 0000 0000 000000
2015-08-31 01:28:54,0.00,0.01,0.00,23.83,28.42,31.30,14.62,49.54,1015.64,2034.96,3444.44,3256.99,3561.97,600.39,594.09,2.67,0000 0000 0000 0000 000000
2015-08-31 01:33:55,0.00,0.01,0.00,23.83,28.40,31.32,14.53,49.38,1015.62,2034.96,3444.27,3256.99,3561.92,599.83,593.65,2.72,0000 0000 0000 0000 000000
2015-08-31 01:38:56,0.00,0.01,0.00,23.85,28.40,31.26,14.50,49.39,1015.64,2034.97,3444.34,3256.99,3561.96,600.24,594.00,2.77,0000 0000 0000 0000 000000
2015-08-31 01:43:57,-0.00,0.01,0.00,23.85,28.40,31.24,14.42,49.12,1015.64,2034.98,3444.47,3256.99,3561.97,599.47,593.32,2.82,0000 0000 0000 0000 000000
2015-08-31 01:48:58,0.00,0.01,0.00,23.81,28.40,31.26,14.50,49.23,1015.65,2034.98,3444.44,3256.99,3561.96,599.93,593.86,2.87,0000 0000 0000 0000 000000
2015-08-31 01:54:00,0.00,0.01,0.00,23.81,28.39,31.26,14.46,49.50,1015.69,2034.98,3444.40,3256.99,3561.94,599.71,593.60,2.92,0000 0000 0000 0000 000000
2015-08-31 01:59:01,-0.00,0.01,0.00,23.84,28.38,31.16,14.41,49.25,1015.91,2034.99,3444.78,3256.99,3561.98,599.54,593.59,2.97,0000 0000 0000 0000 000000
2015-08-31 02:04:02,0.00,0.01,0.00,23.81,28.37,31.17,14.58,49.39,1016.09,2034.99,3444.57,3257.00,3561.97,600.08,594.22,3.02,0000 0000 0000 0000 000000
2015-08-31 02:09:04,-0.00,0.01,0.00,23.81,28.37,31.18,14.57,49.44,1016.12,2034.99,3444.62,3257.00,3561.97,599.86,593.98,3.07,0000 0000 0000 0000 000000
2015-08-31 02:14:05,0.00,0.01,0.00,23.84,28.37,31.11,14.54,49.50,1016.10,2034.99,3444.57,3257.00,3561.96,600.08,593.92,3.12,0000 0000 0000 0000 000000
2015-08-31 02:19:06,0.00,0.01,0.00,23.80,28.35,31.12,14.55,49.73,1016.13,2034.99,3444.39,3257.00,3561.97,600.36,594.54,3.17,0000 0000 0000 0000 000000
2015-08-31 02:24:07,0.00,0.01,0.00,23.81,28.35,31.14,14.51,49.66,1016.13,2034.99,3444.58,3257.01,3561.98,599.98,594.10,3.22,0000 0000 0000 0000 000000
2015-08-31 02:29:08,0.00,0.01,0.00,23.81,28.35,31.13,14.51,49.58,1016.13,2034.99,3444.69,3257.01,3561.99,600.12,594.37,3.27,0000 0000 0000 0000 000000
2015-08-31 02:34:10,0.01,0.01,0.00,23.82,28.34,31.09,14.44,49.51,1016.15,2034.99,3444.21,3257.00,3561.68,599.96,593.95,3.32,0000 0000 0000 0000 000000
2015-08-31 02:39:11,0.00,0.01,0.00,23.80,28.32,31.09,14.58,49.61,1016.18,2035.00,3444.06,3257.00,3561.74,600.12,594.19,3.37,0000 0000 0000 0000 000000
2015-08-31 02:44:13,0.00,0.01,0.00,23.78,28.32,31.04,14.55,49.58,1016.18,2035.02,3444.08,3257.00,3561.86,600.27,594.52,3.42,0000 0000 0000 0000 000000
2015-08-31 02:49:14,0.00,0.01,0.00,23.79,28.32,31.02,14.50,49.50,1016.37,2035.04,3444.10,3257.00,3561.93,600.10,594.61,3.47,0000 0000 0000 0000 000000
2015-08-31 02:54:15,-0.00,0.01,0.00,23.76,28.31,31.09,14.43,49.42,1016.44,2035.03,3444.23,3257.00,3561.92,600.13,594.61,3.52,0000 0000 0000 0000 000000
2015-08-31 02:59:17,0.01,0.01,0.00,23.74,28.30,31.08,14.47,49.78,1016.20,2035.01,3444.27,3257.00,3561.66,599.89,593.99,3.57,0000 0000 0000 0000 000000
2015-08-31 03:04:18,0.00,0.01,0.00,23.76,28.30,30.99,14.49,49.82,1016.40,2035.03,3444.11,3257.00,3561.23,599.93,594.27,3.62,0000 0000 0000 0000 000000
2015-08-31 03:09:20,0.01,0.01,0.00,23.75,28.30,31.06,14.49,49.41,1016.62,2035.01,3444.05,3256.74,3561.14,599.92,594.61,3.67,0000 0000 0000 0000 000000
2015-08-31 03:14:21,0.01,0.01,0.00,23.79,28.30,31.01,14.57,49.72,1016.66,2035.03,3444.00,3256.23,3560.99,599.89,594.40,3.72,0000 0000 0000 0000 000000
2015-08-31 03:19:22,-0.00,0.01,0.00,23.81,28.30,31.02,14.56,49.53,1016.84,2035.04,3444.00,3256.24,3560.98,600.15,594.73,3.77,0000 0000 0000 0000 000000
2015-08-31 03:24:23,0.00,0.01,0.00,23.81,28.30,31.06,14.49,49.24,1017.09,2035.01,3443.98,3256.06,3560.97,599.74,594.57,3.82,0000 0000 0000 0000 000000
2015-08-31 03:29:25,-0.01,0.01,0.00,23.81,28.30,31.08,14.58,49.46,1017.10,2035.01,3443.98,3256.20,3560.97,599.93,594.54,3.87,0000 0000 0000 0000 000000
2015-08-31 03:34:26,-0.02,0.01,0.00,23.84,28.30,31.09,14.54,49.45,1017.25,2035.03,3443.99,3256.98,3560.98,599.98,594.87,3.92,0000 0000 0000 0000 000000
2015-08-31 03:39:27,-0.00,0.01,0.00,23.85,28.30,31.07,14.46,49.50,1017.41,2035.02,3443.99,3257.04,3560.96,599.77,594.60,3.97,0000 0000 0000 0000 000000
2015-08-31 03:44:28,0.00,0.01,0.00,23.85,28.30,31.03,14.49,49.44,1017.52,2035.01,3443.99,3257.08,3560.96,600.01,594.72,4.02,0000 0000 0000 0000 000000
2015-08-31 03:49:29,-0.00,0.01,0.00,23.89,28.30,30.96,14.54,49.13,1017.59,2035.02,3443.99,3257.13,3560.97,599.92,594.78,4.07,0000 0000 0000 0000 000000
2015-08-31 03:54:31,0.00,0.01,0.00,23.83,28.30,31.03,14.48,49.33,1017.59,2035.01,3443.99,3257.04,3560.91,600.17,595.14,4.12,0000 0000 0000 0000 000000
2015-08-31 03:59:32,0.00,0.01,0.00,23.80,28.30,31.01,14.48,49.18,1017.63,2035.01,3443.99,3257.09,3560.95,599.96,595.10,4.17,0000 0000 0000 0000 000000
2015-08-31 04:04:33,-0.00,0.01,0.00,23.82,28.30,30.97,14.51,49.36,1017.78,2035.01,3443.99,3257.04,3560.95,600.12,595.06,4.22,0000 0000 0000 0000 000000
2015-08-31 04:09:34,0.00,0.01,0.00,23.81,28.30,31.01,14.52,49.24,1018.02,2035.03,3443.99,3257.05,3560.91,600.11,595.38,4.27,0000 0000 0000 0000 000000
2015-08-31 04:14:35,0.01,0.01,0.00,23.80,28.30,31.00,14.48,49.38,1018.08,2035.00,3443.95,3257.01,3560.49,599.79,594.98,4.32,0000 0000 0000 0000 000000
2015-08-31 04:19:37,0.00,0.01,0.00,23.82,28.30,30.95,14.51,49.50,1018.11,2035.01,3443.97,3257.01,3560.44,599.94,595.33,4.38,0000 0000 0000 0000 000000
2015-08-31 04:24:38,0.00,0.01,0.00,23.78,28.30,31.01,14.51,49.18,1018.29,2035.03,3443.97,3257.02,3560.71,599.62,594.99,4.43,0000 0000 0000 0000 000000
2015-08-31 04:29:40,0.01,0.01,0.00,23.74,28.30,31.01,14.54,49.33,1018.46,2035.04,3443.72,3257.00,3560.40,600.05,595.61,4.48,0000 0000 0000 0000 000000
2015-08-31 04:34:41,0.00,0.01,0.00,23.78,28.30,30.95,14.56,49.42,1018.51,2035.03,3443.47,3257.00,3560.18,599.92,595.46,4.53,0000 0000 0000 0000 000000
2015-08-31 04:39:42,0.00,0.01,0.00,23.79,28.30,31.03,14.46,49.31,1018.57,2035.02,3443.07,3257.00,3560.06,599.67,595.15,4.58,0000 0000 0000 0000 000000
2015-08-31 04:44:43,0.00,0.01,0.00,23.81,28.30,30.99,14.48,49.27,1018.57,2035.01,3443.01,3256.99,3560.02,599.80,595.43,4.63,0000 0000 0000 0000 000000
2015-08-31 04:49:44,0.00,0.01,0.00,23.80,28.30,30.99,14.59,49.61,1018.46,2035.01,3443.00,3256.99,3560.01,600.02,595.56,4.68,0000 0000 0000 0000 000000
2015-08-31 04:54:46,0.00,0.01,0.00,23.80,28.30,31.03,14.49,49.28,1018.22,2035.01,3443.00,3256.99,3560.01,599.70,595.03,4.73,0000 0000 0000 0000 000000
2015-08-31 04:59:47,0.00,0.01,0.00,23.83,28.30,30.98,14.38,49.08,1018.44,2035.01,3443.00,3256.99,3560.01,599.83,595.23,4.78,0000 0000 0000 0000 000000
2015-08-31 05:04:48,-0.00,0.01,0.00,23.82,28.30,31.02,14.46,49.08,1018.55,2035.01,3443.00,3256.99,3560.00,599.45,595.13,4.83,0000 0000 0000 0000 000000
2015-08-31 05:09:49,0.00,0.01,0.00,23.82,28.30,31.03,14.52,49.28,1018.57,2035.04,3442.95,3256.99,3560.00,599.94,595.57,4.88,0000 0000 0000 0000 000000
2015-08-31 05:14:50,0.00,0.01,0.00,23.81,28.30,31.04,14.52,49.13,1018.57,2035.02,3442.81,3256.98,3560.00,600.17,595.76,4.93,0000 0000 0000 0000 000000
2015-08-31 05:19:52,0.00,0.01,0.00,23.81,28.30,30.99,14.42,49.04,1018.58,2035.03,3442.76,3256.98,3559.99,599.43,594.95,4.98,0000 0000 0000 0000 000000
2015-08-31 05:24:53,-0.00,0.01,0.00,23.80,28.30,31.05,14.60,49.28,1018.57,2035.01,3442.87,3256.99,3559.99,600.22,595.89,5.03,0000 0000 0000 0000 000000
2015-08-31 05:29:54,-0.00,0.01,0.00,23.81,28.30,31.03,14.51,49.18,1018.59,2035.01,3442.89,3256.99,3559.99,599.89,595.44,5.08,0000 0000 0000 0000 000000
2015-08-31 05:34:55,0.00,0.01,0.00,23.83,28.30,31.01,14.58,49.31,1018.61,2035.02,3442.87,3256.99,3559.99,599.90,595.45,5.13,0000 0000 0000 0000 000000
2015-08-31 05:39:57,0.00,0.01,0.00,23.79,28.30,31.00,14.61,49.40,1018.72,2035.02,3442.68,3256.99,3559.99,600.25,595.92,5.18,0000 0000 0000 0000 000000
2015-08-31 05:44:58,0.00,0.01,0.00,23.62,28.29,31.03,14.51,49.31,1018.89,2035.01,3442.47,3256.98,3559.99,599.87,596.08,5.23,0000 0000 0000 0000 000000
2015-08-31 05:49:59,0.00,0.01,0.00,23.48,28.28,31.02,14.59,49.35,1018.85,2035.01,3442.25,3256.97,3559.99,600.33,596.70,5.28,0000 0000 0000 0000 000000
2015-08-31 05:55:00,0.00,0.01,0.00,23.55,28.29,30.93,14.58,49.35,1018.88,2035.02,3442.10,3256.97,3559.99,600.03,596.30,5.33,0000 0000 0000 0000 000000
2015-08-31 06:00:02,-0.00,0.01,0.00,23.71,28.30,31.00,14.47,49.36,1018.97,2035.00,3442.05,3256.94,3559.94,599.77,595.83,5.38,0000 0000 0000 0000 000000
2015-08-31 06:05:03,0.01,0.01,0.00,23.75,28.30,31.09,14.49,49.28,1019.02,2035.00,3442.00,3256.73,3559.75,599.82,595.84,5.43,0000 0000 0000 0000 000000
2015-08-31 06:10:04,0.00,0.01,0.00,23.77,28.31,31.13,14.54,49.23,1019.04,2035.01,3442.00,3256.55,3559.60,599.72,595.78,5.48,0000 0000 0000 0000 000000
2015-08-31 06:15:05,0.01,0.01,0.00,23.81,28.32,31.15,14.54,49.04,1019.05,2035.00,3442.00,3256.28,3559.28,599.76,595.78,5.53,0000 0000 0000 0000 000000
2015-08-31 06:20:06,0.00,0.01,0.00,23.82,28.33,31.15,14.49,49.06,1019.06,2035.00,3441.98,3256.06,3559.13,599.87,595.79,5.58,0000 0000 0000 0000 000000
2015-08-31 06:25:08,-0.00,0.01,0.00,23.85,28.35,31.18,14.67,49.27,1019.04,2035.01,3441.92,3256.02,3559.06,600.54,596.31,5.63,0000 0000 0000 0000 000000
2015-08-31 06:30:09,0.00,0.01,0.00,23.85,28.35,31.14,14.57,49.28,1019.05,2035.01,3441.88,3256.02,3559.03,600.12,595.85,5.68,0000 0000 0000 0000 000000
2015-08-31 06:35:10,-0.00,0.01,0.00,23.84,28.36,31.15,14.49,49.07,1019.03,2035.00,3441.67,3256.00,3559.01,599.69,595.38,5.73,0000 0000 0000 0000 000000
2015-08-31 06:40:11,0.00,0.01,0.00,23.88,28.37,31.15,14.53,48.95,1019.04,2035.00,3441.45,3256.00,3559.00,600.09,595.82,5.78,0000 0000 0000 0000 000000
2015-08-31 06:45:13,0.00,0.01,0.00,23.88,28.37,31.13,14.49,49.19,1019.06,2035.00,3441.38,3256.00,3559.00,600.00,595.84,5.83,0000 0000 0000 0000 000000
2015-08-31 06:50:14,0.00,0.01,0.00,23.87,28.37,31.15,14.51,49.21,1019.06,2035.00,3441.09,3256.00,3559.00,599.66,595.39,5.88,0000 0000 0000 0000 000000
2015-08-31 06:55:16,0.00,0.01,0.00,23.87,28.38,31.15,14.64,49.28,1019.05,2035.00,3441.01,3256.00,3558.97,600.49,596.36,5.93,0000 0000 0000 0000 000000
2015-08-31 07:00:17,0.00,0.01,0.00,23.87,28.39,31.10,14.57,49.56,1019.01,2035.00,3441.02,3255.99,3558.95,600.34,596.01,5.98,0000 0000 0000 0000 000000
2015-08-31 07:05:18,0.00,0.01,0.00,23.89,28.40,31.12,14.51,49.27,1019.01,2035.00,3441.00,3255.99,3558.84,599.75,595.41,6.03,0000 0000 0000 0000 000000
2015-08-31 07:10:19,0.01,0.01,0.00,23.91,28.40,31.12,14.58,49.33,1019.06,2034.99,3441.00,3255.98,3558.57,600.32,595.89,6.08,0000 0000 0000 0000 000000
2015-08-31 07:15:21,0.00,0.01,0.00,23.91,28.40,31.14,14.65,49.27,1019.06,2034.99,3441.00,3255.97,3558.17,600.17,595.91,6.13,0000 0000 0000 0000 000000
2015-08-31 07:20:22,-0.00,0.01,0.00,23.90,28.40,31.18,14.55,49.42,1019.06,2034.99,3440.99,3255.97,3558.28,599.99,595.71,6.18,0000 0000 0000 0000 000000
2015-08-31 07:25:24,0.00,0.01,0.00,23.92,28.40,31.14,14.52,49.29,1019.06,2034.99,3440.99,3255.95,3558.24,599.95,595.52,6.23,0000 0000 0000 0000 000000
2015-08-31 07:30:25,0.00,0.01,0.00,23.92,28.41,31.19,14.57,49.33,1019.05,2034.99,3440.98,3255.78,3558.30,599.79,595.49,6.28,0000 0000 0000 0000 000000
2015-08-31 07:35:27,0.01,0.01,0.00,23.94,28.42,31.17,14.47,49.17,1019.06,2034.99,3440.93,3255.56,3558.08,600.07,595.66,6.33,0000 0000 0000 0000 000000
2015-08-31 07:40:28,0.00,0.01,0.00,23.92,28.42,31.18,14.49,49.21,1019.07,2034.99,3440.87,3255.42,3558.04,599.78,595.40,6.38,0000 0000 0000 0000 000000
2015-08-31 07:45:29,0.00,0.01,0.00,23.94,28.42,31.19,14.48,49.17,1019.06,2034.99,3440.92,3255.53,3558.05,600.11,595.66,6.43,0000 0000 0000 0000 000000
2015-08-31 07:50:31,0.00,0.01,0.00,23.92,28.42,31.15,14.52,49.16,1019.07,2034.99,3440.73,3255.26,3558.02,599.78,595.44,6.48,0000 0000 0000 0000 000000
2015-08-31 07:55:32,0.01,0.01,0.00,23.92,28.42,31.22,14.57,49.38,1019.06,2034.99,3440.62,3255.19,3558.01,600.16,595.77,6.53,0000 0000 0000 0000 000000
2015-08-31 08:00:33,-0.01,0.01,0.00,23.96,28.42,31.18,14.48,48.97,1019.06,2034.99,3440.70,3255.24,3558.00,600.04,595.48,6.58,0000 0000 0000 0000 000000
2015-08-31 08:05:34,0.01,0.01,0.00,23.96,28.42,31.15,14.53,49.08,1019.06,2034.98,3440.71,3255.32,3558.00,600.19,595.65,6.63,0000 0000 0000 0000 000000
2015-08-31 08:10:35,-0.00,0.01,0.00,23.95,28.42,31.16,14.49,48.78,1019.07,2034.98,3440.76,3255.32,3558.00,600.03,595.53,6.68,0000 0000 0000 0000 000000
2015-08-31 08:15:36,-0.00,0.01,0.00,23.95,28.42,31.15,14.61,49.27,1019.08,2034.98,3440.74,3255.45,3558.00,599.90,595.48,6.74,0000 0000 0000 0000 000000
2015-08-31 08:20:37,-0.00,0.01,0.00,23.97,28.43,31.17,14.51,49.12,1019.13,2034.98,3440.85,3255.67,3558.00,599.75,595.24,6.79,0000 0000 0000 0000 000000
2015-08-31 08:25:39,0.01,0.01,0.00,23.97,28.44,31.16,14.53,49.00,1019.45,2034.99,3440.59,3255.39,3558.00,599.93,595.63,6.84,0000 0000 0000 0000 000000
2015-08-31 08:30:40,0.01,0.01,0.00,23.97,28.44,31.18,14.65,49.08,1019.54,2034.97,3440.30,3255.18,3557.99,600.09,595.76,6.89,0000 0000 0000 0000 000000
2015-08-31 08:35:41,-0.00,0.01,0.00,23.98,28.45,31.16,14.57,49.10,1019.54,2034.97,3440.14,3255.09,3557.99,600.34,596.21,6.94,0000 0000 0000 0000 000000
2015-08-31 08:40:43,-0.00,0.01,0.00,23.96,28.45,31.20,14.57,49.02,1019.55,2034.97,3440.13,3255.09,3557.99,600.55,596.21,6.99,0000 0000 0000 0000 000000
2015-08-31 08:45:44,-0.00,0.01,0.00,23.97,28.45,31.21,14.41,48.81,1019.54,2034.97,3440.04,3255.04,3557.98,599.99,595.75,7.04,0000 0000 0000 0000 000000
2015-08-31 08:50:45,-0.00,0.01,0.00,23.97,28.45,31.23,14.51,48.77,1019.53,2034.94,3440.01,3255.01,3557.96,600.17,596.10,7.09,0000 0000 0000 0000 000000
2015-08-31 08:55:46,0.00,0.01,0.00,23.96,28.45,31.27,14.54,48.86,1019.54,2034.94,3440.00,3255.01,3557.89,600.08,595.90,7.14,0000 0000 0000 0000 000000
2015-08-31 09:00:48,0.00,0.01,0.00,23.95,28.45,31.29,14.61,49.27,1019.54,2034.91,3440.01,3255.01,3557.58,600.30,596.26,7.19,0000 0000 0000 0000 000000
2015-08-31 09:05:49,-0.01,0.01,0.00,23.97,28.46,31.28,14.58,48.85,1019.52,2034.86,3440.00,3255.00,3557.65,600.04,595.80,7.24,0000 0000 0000 0000 000000
2015-08-31 09:10:50,0.00,0.01,0.00,23.98,28.47,31.24,14.51,49.17,1019.54,2034.80,3440.00,3255.01,3557.39,600.11,595.90,7.29,0000 0000 0000 0000 000000
2015-08-31 09:15:51,0.00,0.01,0.00,23.95,28.47,31.26,14.57,49.02,1019.55,2034.82,3440.00,3255.01,3557.38,599.84,595.61,7.34,0000 0000 0000 0000 000000
2015-08-31 09:20:53,-0.01,0.01,0.00,23.95,28.47,31.32,14.53,49.13,1019.55,2034.71,3440.00,3255.01,3557.28,599.70,595.56,7.39,0000 0000 0000 0000 000000
2015-08-31 09:25:54,0.00,0.01,0.00,23.98,28.47,31.27,14.53,49.08,1019.55,2034.73,3440.00,3255.01,3557.28,599.88,595.74,7.44,0000 0000 0000 0000 000000
2015-08-31 09:30:55,-0.00,0.01,0.00,23.96,28.47,31.26,14.54,48.92,1019.55,2034.69,3440.00,3255.00,3557.22,599.89,595.58,7.49,0000 0000 0000 0000 000000
2015-08-31 09:35:56,-0.01,0.01,0.00,23.95,28.47,31.27,14.56,48.88,1019.54,2034.57,3440.00,3255.00,3557.10,599.87,595.71,7.54,0000 0000 0000 0000 000000
2015-08-31 09:40:57,0.01,0.01,0.00,23.95,28.47,31.28,14.53,48.92,1019.53,2034.65,3440.00,3255.00,3557.13,600.17,595.82,7.59,0000 0000 0000 0000 000000
2015-08-31 09:45:58,0.01,0.01,0.00,23.93,28.47,31.27,14.60,48.97,1019.55,2034.65,3439.99,3255.00,3557.05,600.27,596.20,7.64,0000 0000 0000 0000 000000
2015-08-31 09:51:00,0.01,0.01,0.00,23.94,28.47,31.30,14.50,49.03,1019.56,2034.80,3439.99,3255.00,3557.11,600.04,595.87,7.69,0000 0000 0000 0000 000000
2015-08-31 09:56:01,-0.01,0.01,0.00,23.97,28.47,31.26,14.55,48.80,1019.55,2034.76,3439.99,3255.00,3557.07,599.93,595.67,7.74,0000 0000 0000 0000 000000
2015-08-31 10:01:02,0.00,0.01,0.00,23.94,28.47,31.29,14.57,48.88,1019.56,2034.69,3439.99,3255.00,3557.05,600.39,596.14,7.79,0000 0000 0000 0000 000000
2015-08-31 10:06:03,-0.00,0.01,0.00,23.92,28.47,31.33,14.56,48.91,1019.55,2034.78,3439.99,3255.00,3557.04,600.11,595.92,7.84,0000 0000 0000 0000 000000
2015-08-31 10:11:04,0.00,0.01,0.00,23.96,28.47,31.23,14.57,48.91,1019.55,2034.78,3439.99,3255.00,3557.01,599.80,595.88,7.89,0000 0000 0000 0000 000000
2015-08-31 10:16:06,-0.02,0.01,0.00,23.96,28.47,31.25,14.48,48.72,1019.55,2034.70,3439.98,3255.00,3557.01,599.37,595.19,7.94,0000 0000 0000 0000 000000
2015-08-31 10:21:07,0.01,0.01,0.00,23.97,28.47,31.31,14.52,48.76,1019.55,2034.71,3439.98,3255.00,3557.01,599.89,595.67,7.99,0000 0000 0000 0000 000000
2015-08-31 10:26:08,-0.02,0.01,0.00,23.98,28.47,31.30,14.61,49.06,1019.55,2034.52,3439.97,3255.00,3557.00,600.08,595.73,8.04,0000 0000 0000 0000 000000
2015-08-31 10:31:10,0.00,0.01,0.00,23.96,28.47,31.27,14.59,49.23,1019.53,2034.46,3439.97,3255.00,3557.00,600.19,596.06,8.09,0000 0000 0000 0000 000000
2015-08-31 10:36:11,0.01,0.01,0.00,23.97,28.47,31.29,14.44,49.00,1019.54,2034.57,3439.95,3255.00,3557.00,599.66,595.48,8.14,0000 0000 0000 0000 000000
2015-08-31 10:41:13,-0.02,0.01,0.00,23.99,28.47,31.25,14.45,49.05,1019.54,2034.29,3439.50,3254.98,3556.99,599.88,595.59,8.19,0000 0000 0000 0000 000000
2015-08-31 10:46:14,0.00,0.01,0.00,23.98,28.47,31.24,14.51,49.23,1019.53,2034.23,3439.28,3254.99,3556.97,599.80,595.64,8.24,0000 0000 0000 0000 000000
2015-08-31 10:51:15,0.00,0.01,0.00,23.99,28.47,31.26,14.47,49.06,1019.52,2034.16,3439.20,3254.98,3556.97,599.63,595.43,8.29,0000 0000 0000 0000 000000
2015-08-31 10:56:17,-0.01,0.01,0.00,23.98,28.47,31.23,14.59,49.15,1019.54,2034.07,3439.10,3254.98,3556.95,600.25,596.13,8.34,0000 0000 0000 0000 000000
2015-08-31 11:01:18,-0.00,0.01,0.00,23.97,28.47,31.26,14.50,49.15,1019.54,2034.12,3439.39,3254.98,3556.98,599.94,595.66,8.39,0000 0000 0000 0000 000000
2015-08-31 11:06:19,-0.00,0.01,0.00,23.98,28.47,31.25,14.53,49.13,1019.54,2034.08,3439.60,3254.99,3556.95,599.95,595.79,8.44,0000 0000 0000 0000 000000
2015-08-31 11:11:20,0.00,0.01,0.00,23.97,28.47,31.29,14.54,48.94,1019.53,2034.19,3439.80,3254.99,3556.98,599.81,595.62,8.49,0000 0000 0000 0000 000000
2015-08-31 11:16:21,-0.01,0.01,0.00,23.97,28.47,31.30,14.49,49.01,1019.48,2034.14,3439.79,3255.00,3556.97,599.97,595.84,8.54,0000 0000 0000 0000 000000
2015-08-31 11:21:22,0.00,0.01,0.00,23.98,28.46,31.26,14.56,49.15,1019.52,2034.16,3439.67,3255.00,3556.98,600.00,595.83,8.59,0000 0000 0000 0000 000000
2015-08-31 11:26:23,0.00,0.01,0.00,23.93,28.45,31.24,14.50,49.29,1019.55,2034.13,3439.25,3255.00,3556.96,600.15,596.07,8.64,0000 0000 0000 0000 000000
2015-08-31 11:31:24,0.00,0.01,0.00,23.94,28.45,31.27,14.48,49.10,1019.51,2034.13,3439.14,3255.00,3556.93,599.88,595.63,8.69,0000 0000 0000 0000 000000
2015-08-31 11:36:26,0.00,0.01,0.00,23.94,28.45,31.30,14.56,48.93,1019.42,2034.15,3439.14,3255.00,3556.93,600.03,595.78,8.74,0000 0000 0000 0000 000000
2015-08-31 11:41:27,0.01,0.01,0.00,23.93,28.45,31.31,14.54,49.20,1019.23,2034.14,3439.06,3255.00,3556.66,600.01,595.72,8.79,0000 0000 0000 0000 000000
2015-08-31 11:46:28,0.02,0.01,0.00,23.96,28.45,31.25,14.56,49.18,1019.11,2034.26,3439.02,3254.99,3556.61,600.25,595.79,8.84,0000 0000 0000 0000 000000
2015-08-31 11:51:29,-0.01,0.01,0.00,23.92,28.43,31.24,14.52,49.04,1019.15,2034.36,3439.00,3254.99,3556.74,599.68,595.39,8.89,0000 0000 0000 0000 000000
2015-08-31 11:56:30,-0.00,0.01,0.00,23.92,28.42,31.28,14.56,49.17,1019.13,2034.32,3439.00,3254.98,3556.37,600.08,595.60,8.94,0000 0000 0000 0000 000000
2015-08-31 12:01:32,0.01,0.01,0.00,23.92,28.42,31.29,14.59,49.02,1019.09,2034.29,3439.00,3254.98,3556.26,600.03,595.69,8.99,0000 0000 0000 0000 000000
2015-08-31 12:06:33,-0.01,0.01,0.00,23.92,28.42,31.27,14.57,48.96,1019.07,2034.15,3439.00,3254.97,3556.06,600.02,595.70,9.04,0000 0000 0000 0000 000000
2015-08-31 12:11:34,0.00,0.01,0.00,23.92,28.42,31.22,14.64,49.06,1019.08,2034.27,3438.98,3254.98,3556.15,600.18,595.87,9.09,0000 0000 0000 0000 000000
2015-08-31 12:16:36,0.03,0.01,0.00,23.92,28.42,31.23,14.54,48.94,1019.09,2034.51,3438.99,3254.99,3556.19,599.92,595.60,9.14,0000 0000 0000 0000 000000
2015-08-31 12:21:37,-0.02,0.01,0.00,23.92,28.42,31.23,14.62,49.20,1019.06,2034.44,3438.99,3254.98,3556.13,600.32,595.86,9.20,0000 0000 0000 0000 000000
2015-08-31 12:26:38,-0.00,0.01,0.00,23.90,28.42,31.22,14.62,49.27,1019.06,2034.41,3438.98,3254.99,3556.05,600.30,596.01,9.25,0000 0000 0000 0000 000000
2015-08-31 12:31:39,0.02,0.01,0.00,23.90,28.42,31.26,14.55,49.22,1019.06,2034.60,3438.98,3254.99,3556.12,599.88,595.64,9.30,0000 0000 0000 0000 000000
2015-08-31 12:36:40,0.01,0.02,0.00,23.91,28.42,31.27,14.60,49.17,1019.06,2034.78,3438.99,3254.99,3556.40,600.22,595.85,9.35,0000 0000 0000 0000 000000
2015-08-31 12:41:42,0.00,0.02,0.00,23.90,28.42,31.25,14.51,49.08,1018.84,2034.86,3438.99,3254.99,3556.48,599.98,595.46,9.40,0000 0000 0000 0000 000000
2015-08-31 12:46:43,-0.01,0.02,0.00,23.87,28.42,31.26,14.51,49.08,1018.67,2034.79,3438.99,3254.99,3556.30,599.60,595.01,9.45,0000 0000 0000 0000 000000
2015-08-31 12:51:44,0.01,0.02,0.00,23.89,28.41,31.26,14.51,49.23,1018.59,2034.79,3438.99,3254.99,3556.14,599.99,595.43,9.50,0000 0000 0000 0000 000000
2015-08-31 12:56:45,-0.01,0.02,0.00,23.88,28.41,31.26,14.49,49.29,1018.58,2034.72,3438.98,3254.99,3556.09,599.72,595.22,9.55,0000 0000 0000 0000 000000
2015-08-31 13:01:47,-0.01,0.02,0.00,23.89,28.41,31.30,14.56,49.15,1018.57,2034.59,3438.96,3254.99,3556.05,599.94,595.33,9.60,0000 0000 0000 0000 000000